When you browse on this site, cookies collect data to enhance your experience and personalize the content and advertising you see.
Visit our Privacy Policy to learn more. By continuing to use the site, you agree to this use of cookies and data.

Météo par heure à Ulan Hot

Ce jour, 5 Juillet, Dimanche

Heure Température Précipitation Vent Pression Humidité
00:00 +21°C° 0.1 mm 1 m/s 725 mmHg 92%
01:00 +20°C° 0.1 mm 1 m/s 724 mmHg 93%
02:00 +20°C° 0 mm 1 m/s 725 mmHg 91%
03:00 +20°C° 0 mm 1 m/s 724 mmHg 90%
04:00 +21°C° 0 mm 1 m/s 724 mmHg 89%
05:00 +21°C° 0 mm 1 m/s 724 mmHg 89%
06:00 +22°C° 0.1 mm 1 m/s 724 mmHg 85%
07:00 +22°C° 0.1 mm 1 m/s 724 mmHg 81%
08:00 +23°C° 0 mm 1 m/s 724 mmHg 76%
09:00 +24°C° 0 mm 1 m/s 724 mmHg 72%
10:00 +25°C° 0 mm 1 m/s 724 mmHg 69%
11:00 +26°C° 0 mm 1 m/s 724 mmHg 65%
12:00 +27°C° 0 mm 1 m/s 724 mmHg 60%
13:00 +28°C° 0 mm 2 m/s 724 mmHg 54%
14:00 +27°C° 0 mm 2 m/s 723 mmHg 59%
15:00 +27°C° 0 mm 2 m/s 723 mmHg 60%
16:00 +27°C° 0 mm 3 m/s 723 mmHg 61%
17:00 +27°C° 0 mm 3 m/s 723 mmHg 63%
18:00 +25°C° 0 mm 3 m/s 723 mmHg 68%
19:00 +24°C° 0 mm 2 m/s 723 mmHg 74%
20:00 +23°C° 0 mm 2 m/s 723 mmHg 79%
21:00 +21°C° 0.5 mm 2 m/s 723 mmHg 82%
22:00 +21°C° 0.5 mm 2 m/s 723 mmHg 84%
23:00 +21°C° 0.5 mm 1 m/s 723 mmHg 87%

Demain, 6 Juillet, Lundi

Heure Température Précipitation Vent Pression Humidité
00:00 +21°C° 0.6 mm 1 m/s 723 mmHg 87%
01:00 +21°C° 0.6 mm 1 m/s 723 mmHg 88%
02:00 +20°C° 0.6 mm 1 m/s 723 mmHg 89%
03:00 +20°C° 0 mm 1 m/s 723 mmHg 89%
04:00 +20°C° 0 mm 1 m/s 723 mmHg 90%
05:00 +20°C° 0 mm 1 m/s 723 mmHg 90%
06:00 +21°C° 0 mm 2 m/s 724 mmHg 85%
07:00 +23°C° 0 mm 2 m/s 724 mmHg 79%
08:00 +24°C° 0 mm 2 m/s 724 mmHg 73%
09:00 +26°C° 0 mm 2 m/s 724 mmHg 68%
10:00 +27°C° 0 mm 2 m/s 724 mmHg 64%
11:00 +28°C° 0 mm 2 m/s 725 mmHg 59%
12:00 +26°C° 1.4 mm 5 m/s 725 mmHg 66%
13:00 +24°C° 1.4 mm 7 m/s 725 mmHg 72%
14:00 +22°C° 1.4 mm 9 m/s 725 mmHg 79%
15:00 +21°C° 2.5 mm 8 m/s 725 mmHg 79%
16:00 +20°C° 2.5 mm 8 m/s 726 mmHg 79%
17:00 +20°C° 2.5 mm 7 m/s 726 mmHg 80%
18:00 +19°C° 0 mm 6 m/s 727 mmHg 79%
19:00 +17°C° 0 mm 5 m/s 728 mmHg 78%
20:00 +18°C° 0 mm 4 m/s 728 mmHg 77%
21:00 +17°C° 0 mm 4 m/s 729 mmHg 78%
22:00 +17°C° 0 mm 3 m/s 729 mmHg 79%
23:00 +16°C° 0 mm 3 m/s 730 mmHg 80%

Après-demain, 7 Juillet, Mardi

Heure Température Précipitation Vent Pression Humidité
00:00 +16°C° 0 mm 3 m/s 730 mmHg 79%
01:00 +16°C° 0 mm 3 m/s 730 mmHg 77%
02:00 +16°C° 0 mm 3 m/s 730 mmHg 76%
03:00 +16°C° 0 mm 3 m/s 730 mmHg 76%
04:00 +16°C° 0 mm 3 m/s 730 mmHg 75%
05:00 +16°C° 0 mm 3 m/s 731 mmHg 75%
06:00 +18°C° 0 mm 3 m/s 731 mmHg 71%
07:00 +21°C° 0 mm 4 m/s 731 mmHg 66%
08:00 +23°C° 0 mm 4 m/s 732 mmHg 62%
09:00 +25°C° 0 mm 4 m/s 732 mmHg 53%
10:00 +27°C° 0 mm 4 m/s 732 mmHg 44%
11:00 +28°C° 0 mm 4 m/s 732 mmHg 35%
12:00 +29°C° 0 mm 3 m/s 731 mmHg 33%
13:00 +29°C° 0 mm 3 m/s 731 mmHg 31%
14:00 +30°C° 0 mm 3 m/s 730 mmHg 30%
15:00 +30°C° 0 mm 2 m/s 730 mmHg 31%
16:00 +30°C° 0 mm 2 m/s 730 mmHg 33%
17:00 +29°C° 0 mm 2 m/s 730 mmHg 35%
18:00 +27°C° 0 mm 2 m/s 730 mmHg 41%
19:00 +26°C° 0 mm 2 m/s 730 mmHg 48%
20:00 +24°C° 0 mm 2 m/s 730 mmHg 54%
21:00 +23°C° 0 mm 2 m/s 731 mmHg 56%
22:00 +21°C° 0 mm 2 m/s 731 mmHg 58%
23:00 +20°C° 0 mm 2 m/s 731 mmHg 60%

8 Juillet, Mercredi

Heure Température Précipitation Vent Pression Humidité
00:00 +20°C° 0 mm 2 m/s 731 mmHg 60%
01:00 +20°C° 0 mm 2 m/s 730 mmHg 60%
02:00 +19°C° 0 mm 2 m/s 730 mmHg 59%
03:00 +19°C° 0 mm 2 m/s 730 mmHg 59%
04:00 +19°C° 0 mm 2 m/s 730 mmHg 60%
05:00 +19°C° 0 mm 2 m/s 730 mmHg 60%
06:00 +21°C° 0 mm 2 m/s 730 mmHg 55%
07:00 +25°C° 0 mm 2 m/s 730 mmHg 51%
08:00 +27°C° 0 mm 2 m/s 730 mmHg 47%
09:00 +28°C° 0 mm 2 m/s 730 mmHg 42%
10:00 +30°C° 0 mm 2 m/s 729 mmHg 38%
11:00 +31°C° 0 mm 2 m/s 729 mmHg 33%
12:00 +33°C° 0 mm 3 m/s 729 mmHg 33%
13:00 +33°C° 0 mm 3 m/s 728 mmHg 33%
14:00 +33°C° 0 mm 4 m/s 728 mmHg 32%
15:00 +33°C° 0 mm 3 m/s 727 mmHg 35%
16:00 +31°C° 0 mm 3 m/s 727 mmHg 38%
17:00 +31°C° 0 mm 3 m/s 727 mmHg 42%
18:00 +29°C° 0 mm 2 m/s 727 mmHg 45%
19:00 +27°C° 0 mm 2 m/s 727 mmHg 48%
20:00 +26°C° 0 mm 2 m/s 727 mmHg 51%
21:00 +25°C° 0 mm 2 m/s 727 mmHg 53%
22:00 +24°C° 0 mm 3 m/s 727 mmHg 54%
23:00 +22°C° 0 mm 3 m/s 727 mmHg 56%

9 Juillet, Jeudi

Heure Température Précipitation Vent Pression Humidité
00:00 +22°C° 0 mm 3 m/s 727 mmHg 57%
01:00 +21°C° 0 mm 2 m/s 727 mmHg 58%
02:00 +21°C° 0 mm 2 m/s 726 mmHg 59%
03:00 +21°C° 0 mm 2 m/s 726 mmHg 62%
04:00 +20°C° 0 mm 2 m/s 726 mmHg 65%
05:00 +20°C° 0 mm 2 m/s 726 mmHg 68%
06:00 +21°C° 0 mm 3 m/s 726 mmHg 65%
07:00 +24°C° 0 mm 3 m/s 726 mmHg 61%
08:00 +26°C° 0 mm 4 m/s 726 mmHg 57%
09:00 +27°C° 0 mm 4 m/s 726 mmHg 54%
10:00 +29°C° 0 mm 4 m/s 726 mmHg 51%
11:00 +32°C° 0 mm 5 m/s 726 mmHg 47%
12:00 +32°C° 0 mm 5 m/s 726 mmHg 47%
13:00 +33°C° 0 mm 6 m/s 725 mmHg 47%
14:00 +34°C° 0 mm 7 m/s 725 mmHg 47%
15:00 +34°C° 0 mm 6 m/s 725 mmHg 47%
16:00 +34°C° 0 mm 6 m/s 725 mmHg 48%
17:00 +34°C° 0 mm 6 m/s 725 mmHg 48%
18:00 +32°C° 0 mm 5 m/s 725 mmHg 52%
19:00 +30°C° 0 mm 5 m/s 725 mmHg 55%
20:00 +28°C° 0 mm 5 m/s 725 mmHg 58%
21:00 +27°C° 0 mm 5 m/s 725 mmHg 59%
22:00 +26°C° 0 mm 4 m/s 725 mmHg 59%
23:00 +26°C° 0 mm 4 m/s 725 mmHg 60%

10 Juillet, Vendredi

Heure Température Précipitation Vent Pression Humidité
00:00 +25°C° 0 mm 4 m/s 726 mmHg 64%
01:00 +24°C° 0 mm 3 m/s 726 mmHg 68%
02:00 +24°C° 0 mm 3 m/s 726 mmHg 72%
03:00 +22°C° 0 mm 3 m/s 726 mmHg 72%
04:00 +22°C° 0 mm 3 m/s 726 mmHg 72%
05:00 +22°C° 0 mm 4 m/s 726 mmHg 72%
06:00 +23°C° 0 mm 5 m/s 727 mmHg 65%
07:00 +24°C° 0 mm 6 m/s 727 mmHg 59%
08:00 +27°C° 0 mm 7 m/s 727 mmHg 53%
09:00 +28°C° 0 mm 7 m/s 727 mmHg 50%
10:00 +29°C° 0 mm 7 m/s 727 mmHg 48%
11:00 +30°C° 0 mm 7 m/s 728 mmHg 45%
12:00 +31°C° 0 mm 8 m/s 728 mmHg 44%
13:00 +32°C° 0 mm 8 m/s 728 mmHg 42%
14:00 +33°C° 0 mm 8 m/s 728 mmHg 41%
15:00 +32°C° 0 mm 8 m/s 728 mmHg 42%
16:00 +32°C° 0 mm 7 m/s 728 mmHg 43%
17:00 +32°C° 0 mm 7 m/s 728 mmHg 44%
18:00 +29°C° 0.1 mm 7 m/s 728 mmHg 50%
19:00 +28°C° 0.1 mm 6 m/s 728 mmHg 55%
20:00 +27°C° 0.1 mm 6 m/s 728 mmHg 61%
21:00 +26°C° 0.2 mm 5 m/s 728 mmHg 61%
22:00 +25°C° 0.2 mm 5 m/s 728 mmHg 62%
23:00 +25°C° 0.2 mm 5 m/s 729 mmHg 62%
Voir plus